map of HHQ home
Great Circle Mapper logo
HHQ - Airport
Location
City:  Hua Hin, Thailand
ICAO / IATA:VTPH / HHQ

Details
Type:Airport (Aerodrome, Airfield)
Use:Public/Civil
Latitude:12°38'10"N (12.636225)
Longitude:99°57'06"E (99.951533)
Datum:WGS 1984
Elevation:62 ft (19 m)
Runways:1
Longest:6890 × 115 ft (2100 × 35 m), paved

Time
Time Zone:UTC+7
Local Time:

Weather
METAR:VTPH 301100Z 09006KT 9999 FEW028 BKN300 29/25 Q1007 NOSIG
TAF:VTPH 300500Z 3006/0106 12010KT 9999 SCT028
TEMPO 3006/3010 12010G20KT 5000 TSRA FEW020CB BKN028
BECMG 3010/3012 18005KT FEW030
BECMG 3018/3020 00000KT BKN028
BECMG 0100/0102 08005KT SCT030

Related Locations
Nearby:
Farthest:LIM: 12246 mi / 19708 km
Lima (Callao) [Jorge Chávez Intl], PE

Find:

   beyond  
but within

Other Information
Maps:
NOTAMs:
Links:
Sources:

  
flag of Thailand   

Sectional Chart

Flight Planning
at skyvector.com

Satellite Image

Google Maps Satellite View

 

Copyright © 2004-2014 Karl L. Swartz. All rights reserved.
The Great Circle Mapper name and logo are trademarks of the Great Circle Mapper.
All other trademarks mentioned herein belong to their respective owners.
Please see credits for attibutions and further copyright information.

  Follow gcmap on Facebook Follow gcmap on Twitter

hCard Microformat

Geo Microformat